Location: Donsbach
(50.7229°N, 8.2384°E)
Time: 06:36:01
(UTC+00:00)

Daily predictions for brighter satellites

Satellite Brightness Start Highest point End
(mag) Time Altitude Azimuth Time Altitude Azimuth Time Altitude Azimuth
Resurs 01 Rocket 1.8 19:29:21 10° SSE 19:33:41 59° ENE 19:38:04 10° N
Cosmos 1441 Rocket 3.7 19:35:36 10° SSE 19:39:09 39° E 19:42:42 10° NNE
IRIDIUM 114 4.4 19:36:41 10° S 19:41:49 63° E 19:47:00 10° N
Cosmos 614 Rocket 4.3 19:37:54 10° S 19:42:47 44° ESE 19:47:43 10° NE
IGS 5A 4.3 19:41:36 10° SE 19:45:23 36° ENE 19:49:11 10° N
Cosmos 1900 4.3 19:41:02 10° SSW 19:45:56 67° SE 19:50:57 10° NE
USA 267 3.5 19:41:18 10° ENE 19:47:34 47° SE 19:53:49 10° SSW
GP-B 4.2 19:45:27 10° NNE 19:49:17 28° E 19:53:05 10° SE
IRIDIUM 103 4.3 19:45:44 10° S 19:50:56 75° E 19:56:10 10° N
Cosmos 1821 Rocket 4.0 19:47:08 10° S 19:53:09 62° E 19:59:19 10° NNE
Shenzhou-11 Module 3.7 19:53:23 10° SSW 19:54:30 12° S 19:55:30 10° SSE
Cosmos 921 Rocket 4.4 19:51:08 10° N 19:54:38 24° NE 19:58:03 10° ESE
COSMOS 2406 3.3 19:49:25 10° SSW 19:55:06 63° ESE 20:00:46 10° NE
CZ-2C R/B 3.7 19:50:46 10° NNE 19:55:27 80° ESE 20:00:00 10° SSW
Cosmos 1743 Rocket 4.4 19:51:53 10° SSW 19:56:15 57° WNW 20:00:41 10° N
SL-16 R/B 3.8 19:52:25 10° NNW 19:56:58 24° NE 20:01:29 10° E
Cosmos 1862 Rocket 4.4 19:53:07 10° N 19:57:15 35° ENE 20:01:01 12° SE
Intercosmos 25 3.4 19:52:25 10° N 19:57:21 86° E 20:00:48 10° S
Lacrosse 5 2.7 19:55:30 10° WNW 20:00:25 47° NNE 20:05:20 10° E
ERS-1 Rocket 3.9 19:56:09 10° SE 20:00:31 33° ENE 20:05:00 10° N
Cosmos 2369 3.8 19:56:42 10° NNW 20:02:30 84° ENE 20:08:05 11° SSE
Cosmos 1862 3.5 20:00:22 10° SSW 20:04:25 81° W 20:08:31 10° N
Sich 1 3.1 20:00:56 10° S 20:05:20 68° E 20:09:47 10° NNE
Cosmos 1818 3.8 20:01:48 10° NW 20:07:13 67° SW 20:12:24 11° SSE
BREEZE-M DEB (TANK) 1.7 20:05:16 10° W 20:08:23 62° S 20:09:54 15° E
IRIDIUM 106 4.5 20:04:03 10° S 20:09:16 79° W 20:14:31 10° N
Cosmos 2082 Rocket 2.7 20:05:09 10° S 20:10:19 37° ESE 20:15:30 10° NE
Cosmos 2278 3.8 20:06:02 10° NNW 20:11:47 70° ENE 20:16:44 14° SE
Cosmos 2123 Rocket 4.1 20:05:46 10° N 20:11:57 66° ENE 20:18:06 10° SSE
Meteor 2-20 4.5 20:07:33 10° N 20:13:46 76° E 20:19:55 10° SSE
Spot 2 Rocket 3.5 20:11:25 11° SSE 20:16:24 74° ENE 20:21:31 10° NNW
Cosmos 2322 Rocket 3.7 20:14:44 10° NNW 20:19:33 27° NE 20:24:21 10° E
Meteor 1-4 Rocket 2.4 20:16:16 10° N 20:19:46 71° ENE 20:22:26 16° SSE
Cosmos 2239 Rocket 4.5 20:16:21 10° S 20:22:29 85° E 20:28:41 10° N
Cosmos 1184 Rocket 3.6 20:21:02 18° SSE 20:22:54 32° E 20:25:54 10° NNE
CZ-2C R/B 3.9 20:18:08 10° N 20:23:02 43° WNW 20:27:55 10° SW
Cosmos 1190 Rocket 4.1 20:17:55 10° S 20:23:04 58° ESE 20:28:18 10° NNE
CARTOSAT-1 4.1 20:20:05 16° SE 20:23:13 45° ENE 20:27:21 10° N
Terra 2.8 20:21:08 15° ESE 20:24:26 33° ENE 20:28:42 10° N
USA 234 3.3 20:18:46 14° SE 20:24:35 80° SSW 20:31:10 10° WNW
Cosmos 407 Rocket 3.5 20:20:42 10° SSW 20:26:00 73° ESE 20:31:18 10° NNE
Cosmos 1605 Rocket 4.3 20:21:08 11° SSE 20:26:40 45° E 20:32:25 10° NNE
Cosmos 1666 Rocket 3.4 20:22:37 10° S 20:26:56 76° E 20:31:17 10° NNE
Cosmos 1238 Rocket 3.4 20:28:02 21° ESE 20:28:50 24° E 20:31:18 10° NE
Okean 1 4.3 20:25:35 10° N 20:29:15 32° ENE 20:31:27 19° ESE
Meteor 1-27 Rocket 4.2 20:24:31 10° NNW 20:30:24 68° W 20:36:17 10° S
MetOp-B 4.4 20:26:06 10° S 20:31:26 68° WSW 20:36:49 10° NNW
Cosmos 2360 Rocket 4.0 20:29:11 10° NNW 20:33:33 22° NE 20:37:53 10° E
Cosmos 1437 Rocket 4.1 20:30:30 10° N 20:33:42 25° ENE 20:35:27 18° ESE
CZ-4B DEB 4.5 20:35:36 23° SSE 20:37:28 61° ENE 20:40:47 10° N
ERBS 3.7 20:34:46 10° W 20:37:56 40° NNW 20:41:06 10° NE
SPOT 5 2.9 20:35:54 20° SE 20:38:41 54° ENE 20:42:57 10° N
USA 238 DEB 4.1 20:32:58 10° S 20:38:56 37° ESE 20:45:07 10° NE
USA 238 4.1 20:33:06 10° S 20:39:02 36° ESE 20:45:13 10° NE
Cosmos 1980 Rocket 2.2 20:37:14 10° NNW 20:42:57 81° WSW 20:47:05 19° SSE
SPOT 1/Viking Rocket 3.6 20:39:53 15° SSE 20:44:18 81° WSW 20:49:34 10° NNW
Cosmos 1703 Rocket 4.3 20:40:53 10° N 20:44:58 37° ENE 20:47:06 23° SE
Cosmos 2242 Rocket 3.9 20:40:42 10° N 20:45:03 50° ENE 20:47:29 24° SE
Cosmos 1763 Rocket 4.1 20:42:42 10° NNW 20:47:51 47° ENE 20:51:08 21° ESE
SL-4 R/B 2.1 20:44:54 10° SW 20:48:36 42° SSE 20:51:35 13° E
Genesis I 3.3 20:44:51 10° NW 20:48:43 69° SW 20:50:44 27° SSE
BREEZE-M DEB (TANK) 2.6 20:46:23 10° WSW 20:49:16 75° S 20:57:21 10° E
Cosmos 405 Rocket 3.2 20:49:22 28° SE 20:50:40 38° E 20:54:09 10° NNE
ATLAS 5 CENTAUR R/B 4.0 20:46:47 10° WNW 20:51:27 25° WSW 20:56:37 10° SSW
Cosmos 1140 Rocket 3.5 20:46:24 10° SSW 20:51:40 90° WNW 20:56:58 10° NNE
Cosmos 2333 Rocket 4.4 20:49:35 10° N 20:53:20 17° NNE 20:57:05 10° ENE
USA 32 4.0 20:53:02 13° S 20:57:41 85° E 21:02:56 10° N
Cosmos 1697 Rocket 3.8 20:53:19 10° NW 20:58:26 37° WSW 21:03:04 12° S
Cosmos 1633 Rocket 3.5 20:55:53 10° SSW 21:00:16 62° WNW 21:04:41 10° N
Cosmos 1833 Rocket 3.1 20:55:20 10° SW 21:00:55 66° WNW 21:06:34 10° NNE
Meteor 1-18 Rocket 4.2 21:00:51 10° N 21:06:30 79° ENE 21:09:50 25° SSE
Okean 1-7 3.3 21:02:27 10° N 21:06:44 54° ENE 21:08:30 31° SE
Cosmos 1867 3.5 21:01:53 10° SSW 21:07:16 66° SE 21:12:42 10° NE
CENTAUR R/B 3.2 21:04:46 23° SSE 21:07:31 33° ESE 21:13:35 10° NE
Resurs 01 Rocket 4.0 21:07:29 10° SW 21:10:34 18° W 21:13:41 10° NW
FALCON 9 DEB 3.2 21:10:54 10° SW 21:14:18 50° SSE 21:15:21 35° E
Meteor 2-4 Rocket 4.0 21:10:31 10° N 21:16:09 55° ENE 21:18:54 29° SE
Cosmos 1850 Rocket 4.5 21:14:18 29° SSE 21:16:24 42° ESE 21:21:22 10° NE
Cosmos 1515 3.7 21:13:19 10° N 21:17:10 71° E 21:18:23 41° SSE
SL-27 R/B 4.2 21:19:36 18° ENE 21:19:36 18° ENE 21:21:10 10° NE
Cosmos 44 3.9 21:15:40 10° NW 21:20:22 49° NE 21:23:09 24° ESE
Cosmos 676 Rocket 4.1 21:15:14 10° SSW 21:20:34 82° WNW 21:25:58 10° NNE
ATLAS 5 CENTAUR R/B 2.3 21:18:23 10° NW 21:20:47 48° NE 21:23:25 22° ESE
SWARM A 4.1 21:19:00 10° N 21:22:21 73° E 21:22:57 54° SSE
Meteor 1-25 Rocket 4.3 21:17:53 14° SSW 21:22:46 80° WNW 21:28:25 10° N
Cosmos 1470 Rocket 3.9 21:19:30 16° SSW 21:22:59 64° WNW 21:27:22 10° N
GP-B 4.5 21:22:35 10° NNW 21:26:40 36° W 21:30:41 10° SW
USA 267 3.4 21:24:19 10° ENE 21:30:52 77° NNW 21:37:25 10° WSW
Cosmos 921 Rocket 3.7 21:29:05 10° NNW 21:33:07 43° WSW 21:34:51 28° SSW
NOSS 3-2 (A) 3.3 21:27:34 10° SSW 21:33:18 73° SE 21:39:56 10° NE
ERS-1 Rocket 3.9 21:36:09 20° SSW 21:39:14 40° W 21:43:59 10° NNW
NOSS 3-2 (C) 3.5 21:35:51 24° S 21:39:15 53° ESE 21:45:38 10° NE
Cosmos 841 Rocket 3.6 21:34:43 10° NNW 21:39:56 65° ENE 21:42:00 36° SE
SAR-Lupe-2 4.4 21:36:29 10° N 21:39:58 48° WNW 21:41:55 23° SW
Cosmos 540 Rocket 3.6 21:36:13 10° NNW 21:41:22 64° ENE 21:43:22 36° SE
SL-16 R/B 2.1 21:36:08 10° NNW 21:41:51 89° WSW 21:44:17 36° SSE
Cosmos 468 Rocket 4.3 21:38:15 10° NNW 21:43:31 62° WSW 21:45:45 33° S
Lacrosse 5 1.8 21:38:37 10° WNW 21:43:42 77° SW 21:45:31 40° SE
Cosmos 1741 Rocket 3.9 21:48:23 33° S 21:50:45 73° ESE 21:56:02 10° NNE
Cosmos 1570 Rocket 4.0 21:45:53 10° NNW 21:51:14 80° ENE 21:53:10 41° SSE
Tsikada Rocket 4.5 21:46:05 10° N 21:52:16 49° ENE 21:54:55 31° SE
Cosmos 2219 Rocket 3.7 21:47:53 10° NNW 21:52:47 28° NE 21:56:38 14° E
Cosmos 2208 Rocket 4.0 21:48:02 10° NNW 21:53:21 72° ENE 21:55:11 41° SE
Cosmos 1814 Rocket 4.1 21:48:31 10° NNW 21:53:43 69° ENE 21:55:32 40° SE
Cosmos 2082 Rocket 3.2 21:48:51 10° SW 21:54:20 47° NW 21:59:49 10° NNE
Cosmos 2084 Rocket 4.4 21:59:01 31° E 21:59:01 31° E 22:01:53 10° ENE
Cosmos 2237 4.4 21:52:32 10° NNW 21:58:15 66° ENE 22:00:35 36° SE
Terra 2.9 22:00:02 25° SW 22:02:08 37° W 22:06:34 10° NNW
Cosmos 2322 Rocket 2.2 21:58:30 10° NNW 22:04:12 76° WSW 22:06:13 42° SSE
EO 1 Del DPAF 4.3 22:02:01 10° NNE 22:04:57 31° E 22:04:57 31° E
USA 234 4.3 22:06:06 24° SSW 22:08:15 29° SW 22:13:48 10° WNW
Cosmos 2100 Rocket 3.9 22:05:35 31° SSW 22:08:46 82° W 22:14:58 10° N
Cosmos 1437 Rocket 4.0 22:06:37 10° NNW 22:10:00 31° W 22:10:50 28° WSW
Meteor 1-11 Rocket 3.9 22:09:09 42° SSE 22:10:47 59° E 22:16:25 10° NNE
Cosmos 1242 Rocket 3.3 22:08:43 10° N 22:12:07 41° ENE 22:12:07 41° ENE
Cosmos 1869 Rocket 3.8 22:13:01 42° SW 22:14:22 66° WNW 22:18:50 10° N
ERBS 4.4 22:11:55 10° WNW 22:14:48 26° N 22:17:40 10° ENE
Cosmos 2360 Rocket 2.2 22:12:44 10° NNW 22:18:27 82° ENE 22:20:20 44° SE
MTI 4.4 22:15:33 10° N 22:18:29 48° WNW 22:18:29 48° WNW
COSMOS 2428 3.9 22:14:04 10° NNW 22:19:22 36° NE 22:22:37 20° E
Geosat 4.2 22:20:48 45° SSW 22:22:01 58° WSW 22:27:00 10° NW
ATLAS 3B R/B 3.0 22:21:13 39° SE 22:22:22 43° ESE 22:28:34 10° NE
Iridium 4 Rocket 3.5 22:21:45 42° SW 22:22:53 55° W 22:27:03 10° N
Cosmos 2173 Rocket 4.1 22:21:11 30° SSW 22:24:22 69° WNW 22:30:30 10° N
CRYOSAT 2 4.3 22:20:43 10° N 22:25:38 87° E 22:26:46 54° S
Cosmos 1500 3.8 22:25:10 42° WSW 22:25:46 47° WNW 22:29:25 10° N
Cosmos 1980 Rocket 4.3 22:22:56 10° WNW 22:26:03 15° W 22:28:51 11° SW
SL-4 R/B 2.2 22:24:19 10° W 22:27:13 50° W 22:27:13 50° W
ALOS 2 2.8 22:27:44 53° ESE 22:28:22 60° ENE 22:32:43 10° N
USA 238 DEB 4.0 22:22:53 10° WSW 22:29:32 66° NW 22:36:31 10° NE
Cosmos 1725 Rocket 4.0 22:27:19 42° S 22:29:38 79° E 22:35:59 10° NNE
USA 238 4.0 22:23:00 10° WSW 22:29:38 67° NW 22:36:38 10° NE
Cosmos 1674 Rocket 3.5 22:28:30 10° N 22:32:49 66° ENE 22:33:13 62° ESE
SL-08 R/B 4.3 22:32:19 43° S 22:34:28 86° E 22:40:36 10° N
Cosmos 1536 2.7 22:34:39 80° E 22:34:39 80° E 22:38:40 10° NNE
Cosmos 1666 2.6 22:37:32 76° WNW 22:37:32 76° WNW 22:41:13 10° N
Cosmos 1743 3.9 22:38:17 33° ENE 22:38:17 33° ENE 22:41:22 10° NNE
Cosmos 2333 Rocket 2.7 22:33:16 10° NNW 22:38:58 55° NE 22:41:19 33° ESE
Cosmos 1271 Rocket 3.3 22:37:14 10° N 22:40:47 45° ENE 22:40:47 45° ENE
Cosmos 1356 3.8 22:41:30 61° N 22:41:30 61° N 22:44:27 10° N
Cosmos 2016 Rocket 4.1 22:39:51 36° SSW 22:42:35 74° WNW 22:48:59 10° N
Cosmos 2237 Rocket 4.0 22:38:10 10° NNW 22:42:53 26° NE 22:47:32 10° E
Cosmos 2061 Rocket 4.1 22:41:23 37° SSW 22:43:59 73° WNW 22:50:12 10° N
Lacrosse 4 Rocket 2.8 22:45:23 26° E 22:45:23 26° E 22:47:56 10° NE
MOS 1-B Rocket 4.0 22:38:34 10° NNE 22:44:18 68° WNW 22:46:43 35° SW
Cosmos 2221 Rocket 4.2 22:41:33 10° NNW 22:45:49 46° W 22:46:29 43° WSW
Cosmos 1733 Rocket 2.9 22:50:59 72° SW 22:51:23 81° W 22:55:50 10° N
Cosmos 1066 Rocket 4.2 22:46:35 10° NNW 22:52:20 74° W 22:53:46 51° SSW
SL-27 R/B 3.9 22:53:08 28° WNW 22:53:32 29° WNW 22:56:30 10° N
Meteor 1-23 Rocket 4.3 22:48:19 10° NNW 22:54:09 75° W 22:55:43 50° S
Cosmos 44 Rocket 4.1 22:50:28 10° NW 22:55:17 49° NE 22:57:31 29° E
Thor Agena Rocket 3.6 22:50:29 10° NNE 22:55:33 71° WNW 22:57:00 46° SW
CENTAUR R/B 2.9 22:51:50 12° WSW 22:57:39 69° NW 23:05:03 10° NE
Cosmos 968 Rocket 3.9 22:59:01 43° ESE 22:59:14 44° ESE 23:04:06 10° NE
Cosmos 44 4.2 22:57:03 10° NW 23:01:31 35° WSW 23:01:33 35° WSW
Cosmos 1975 4.0 23:02:22 31° E 23:02:22 31° E 23:05:37 10° NNE
SL-24 DEB 4.4 23:00:05 10° N 23:04:50 60° E 23:05:18 56° ESE
Cosmos 1782 Rocket 4.4 23:10:37 37° E 23:10:37 37° E 23:14:36 10° NNE
Cosmos 1378 3.6 23:09:13 10° NNW 23:12:29 56° WNW 23:12:29 56° WNW
USA 267 4.0 23:07:16 10° ENE 23:13:34 53° N 23:19:53 10° WNW
Cosmos 1707 4.5 23:12:31 10° NNE 23:15:44 23° ENE 23:16:13 23° E
Cosmos 2233 Rocket 4.0 23:14:31 44° SSW 23:16:39 76° W 23:23:02 10° N
Cosmos 1464 Rocket 4.5 23:15:36 39° SE 23:17:18 49° E 23:23:14 10° NNE
Cosmos 1842 3.6 23:13:56 10° N 23:17:41 58° ENE 23:17:41 58° ENE
Cosmos 1908 Rocket 3.4 23:18:33 77° ESE 23:18:38 78° E 23:23:01 10° NNE
Helios 1B rocket 4.1 23:18:48 10° NE 23:21:48 22° E 23:21:48 22° E
Cosmos 2227 Rocket 4.3 23:22:42 12° ESE 23:23:35 13° E 23:25:59 10° ENE
Meteor 1-21 4.4 23:17:52 10° N 23:23:42 66° ENE 23:25:22 45° SE
SL-16 R/B 4.0 23:21:38 10° WNW 23:25:10 17° W 23:26:08 16° WSW
Lacrosse 5 3.7 23:22:25 10° W 23:24:40 18° WSW 23:24:40 18° WSW
Cosmos 1378 Rocket 4.1 23:24:24 10° NNW 23:28:39 45° W 23:28:49 45° W
Cosmos 2322 3.8 23:23:05 10° NW 23:28:40 58° WSW 23:29:31 52° SSW
NOSS 3-2 (C) 4.4 23:24:31 10° WSW 23:30:18 48° NNW 23:37:02 10° NE
Cosmos 1833 4.2 23:28:45 45° SW 23:30:31 76° WNW 23:36:13 10° NNE
COSMOS 2487 3.3 23:32:14 47° NNW 23:32:14 47° NNW 23:35:06 10° NNE
Nadezhda 4 Rocket 4.3 23:29:30 10° N 23:35:45 59° ENE 23:38:03 38° SE
Cosmos 2219 Rocket 2.2 23:31:35 10° NNW 23:37:16 71° WSW 23:38:19 57° S
Cosmos 783 Rocket 4.5 23:35:57 10° NNW 23:41:14 81° ENE 23:42:23 56° SE
Cosmos 1975 Rocket 2.9 23:37:39 10° N 23:42:11 90° E 23:42:25 81° S
Okean 2 Rocket 4.0 23:45:22 35° ESE 23:45:43 35° E 23:49:50 10° NNE
Cosmos 2034 Rocket 4.3 23:43:53 41° SE 23:45:45 56° E 23:51:56 10° NNE
Cosmos 1503 Rocket 4.0 23:45:55 60° SSE 23:46:47 73° ESE 23:52:10 10° NNE
Cosmos 2322 Rocket 4.2 23:44:29 10° WNW 23:47:18 14° W 23:48:01 14° WSW
Cosmos 1072 Rocket 4.4 23:46:51 51° S 23:48:32 84° E 23:54:41 10° N
YAOGAN 11 4.2 23:48:26 64° WSW 23:48:39 66° WSW 23:53:15 10° NNW
Helios 1A 3.4 23:49:48 51° W 23:49:48 51° W 23:53:45 10° NNW
Landsat 4 4.1 23:45:49 10° NNE 23:49:12 59° ENE 23:49:12 59° ENE
SL-16 R/B 3.8 23:46:15 14° ESE 23:51:01 35° ENE 23:56:36 10° N
ERBS 3.5 23:48:23 10° NW 23:51:02 41° NNW 23:51:02 41° NNW
Cosmos 1300 Rocket 4.4 23:52:28 37° E 23:52:42 37° E 23:56:41 10° NNE
CZ-2D R/B 4.1 23:49:05 10° NE 23:52:49 18° E 23:54:54 15° ESE
SL-16 R/B 3.8 23:48:06 10° NNW 23:53:11 31° NE 23:58:12 10° ESE
Cosmos 1486 Rocket 4.2 23:52:11 46° WSW 23:53:32 63° WNW 23:58:43 10° NNE
Cosmos 1544 3.7 23:54:38 51° NW 23:54:38 51° NW 23:57:51 10° N
